Date String (YYYY-MM-DD hh:mm:ss) UTC,Instrument flags,Ambient pressure (hPa),Sample flow (lpm),Bypass flow (lpm),Sample temperature (°C),Ambient temperature (°C),ASC tube jacket temperature (°C),LED temperature (°C),Box temperature (°C),Sample RH (%),Span deviation,Mass concentration (μg/m³),Mass concentration (μg/m³),Mass concentration (μg/m³)
DateTimeUTC,F1_M11,P_M11,Q1_M11,Q2_M11,T1_M11,T2_M11,T3_M11,T4_M11,T5_M11,U1_M11,ZSPAN_M11,X0_M11,X2_M11,X1_M11
2023-02-23 15:00:00,,0821.6,4.99,0.00,22.6,23.4,00.0,31.2,24.4,03.8,0000.0,0006.93,0004.37,0004.10
2023-02-23 15:01:00,,0821.6,5.01,0.00,22.6,22.5,00.0,31.2,24.3,03.8,0000.0,0007.03,0004.40,0004.12
2023-02-23 15:02:00,,0821.6,5.03,0.00,22.6,21.8,00.0,31.2,24.2,03.8,0000.0,0007.03,0004.41,0004.13
2023-02-23 15:03:00,,0821.6,5.02,0.00,22.5,21.2,00.0,31.2,24.0,03.9,0000.0,0006.94,0004.40,0004.14
2023-02-23 15:04:00,,0821.6,4.98,0.00,22.4,20.8,00.0,31.2,23.9,03.9,0000.0,0006.94,0004.39,0004.14
2023-02-23 15:05:00,,0821.6,5.00,0.00,22.4,20.6,00.0,31.2,23.9,03.9,0000.0,0006.83,0004.37,0004.14
2023-02-23 15:06:00,,0821.6,4.98,0.00,22.3,20.5,00.0,31.2,23.8,04.0,0000.0,0007.44,0004.37,0004.15
2023-02-23 15:07:00,,0821.7,4.99,0.00,22.4,21.7,00.0,31.1,24.0,04.0,0000.0,0007.74,0004.41,0004.17
2023-02-23 15:08:00,,0821.7,5.00,0.00,22.5,22.9,00.0,31.1,24.3,04.0,0000.0,0007.76,0004.42,0004.17
2023-02-23 15:09:00,,0821.6,5.05,0.00,22.6,23.3,00.0,31.2,24.4,04.0,0000.0,0007.84,0004.45,0004.20
2023-02-23 15:10:00,,0821.6,4.99,0.00,22.6,22.5,00.0,31.2,24.3,03.9,0000.0,0007.87,0004.46,0004.19
2023-02-23 15:11:00,,0821.5,4.97,0.00,22.6,21.8,00.0,31.2,24.2,03.9,0000.0,0007.85,0004.46,0004.19
2023-02-23 15:12:00,,0821.5,5.01,0.00,22.5,21.3,00.0,31.2,24.0,04.0,0000.0,0007.82,0004.45,0004.20
2023-02-23 15:13:00,,0821.5,4.99,0.00,22.5,20.9,00.0,31.2,23.9,04.0,0000.0,0007.83,0004.44,0004.20
2023-02-23 15:14:00,,0821.5,4.97,0.00,22.4,20.6,00.0,31.2,23.8,04.0,0000.0,0007.84,0004.46,0004.21
2023-02-23 15:15:00,,0821.5,4.99,0.00,22.3,20.5,00.0,31.2,23.8,03.9,0000.0,0007.92,0004.48,0004.22
2023-02-23 15:16:00,,0821.6,5.01,0.00,22.4,21.7,00.0,31.1,24.0,04.0,0000.0,0008.06,0004.52,0004.22
2023-02-23 15:17:00,,0821.6,5.04,0.00,22.5,22.8,00.0,31.2,24.3,04.0,0000.0,0007.59,0004.53,0004.22
2023-02-23 15:18:00,,0821.6,5.00,0.00,22.6,22.6,00.0,31.2,24.3,04.0,0000.0,0007.36,0004.49,0004.21
2023-02-23 15:19:00,,0821.6,5.01,0.00,22.5,21.9,00.0,31.2,24.1,04.0,0000.0,0007.37,0004.50,0004.21
2023-02-23 15:20:00,,0821.6,4.99,0.00,22.5,21.3,00.0,31.2,24.0,04.1,0000.0,0007.35,0004.49,0004.20
2023-02-23 15:21:00,,0821.6,5.00,0.00,22.4,20.9,00.0,31.2,23.9,04.2,0000.0,0007.36,0004.49,0004.21
2023-02-23 15:22:00,,0821.6,5.00,0.00,22.4,20.5,00.0,31.2,23.8,04.3,0000.0,0007.74,0004.52,0004.22
2023-02-23 15:23:00,,0821.5,5.00,0.00,22.3,20.4,00.0,31.1,23.7,04.4,0000.0,0007.89,0004.50,0004.20
2023-02-23 15:24:00,,0821.5,4.99,0.00,22.3,21.7,00.0,31.1,24.0,04.5,0000.0,0008.02,0004.49,0004.19
2023-02-23 15:25:00,,0821.6,5.00,0.00,22.5,23.0,00.0,31.1,24.3,04.5,0000.0,0008.04,0004.51,0004.19
2023-02-23 15:26:00,,0821.6,5.03,0.00,22.6,23.5,00.0,31.2,24.5,04.6,0000.8,0008.02,0004.51,0004.20
2023-02-23 15:27:00,,0821.5,5.01,0.00,22.6,22.8,00.0,31.2,24.3,04.6,0003.7,0007.94,0004.50,0004.20
2023-02-23 15:28:00,,0821.4,5.01,0.00,22.6,22.0,00.0,31.2,24.1,04.6,0000.2,0007.90,0004.48,0004.21
2023-02-23 15:29:00,,0821.4,5.02,0.00,22.5,21.4,00.0,31.2,24.0,04.7,0002.2,0007.93,0004.49,0004.20
2023-02-23 15:30:00,,0821.5,5.00,0.00,22.4,21.0,00.0,31.2,23.9,04.7,0001.5,0007.92,0004.48,0004.20
2023-02-23 15:31:00,,0821.5,5.00,0.00,22.4,20.6,00.0,31.2,23.9,04.8,0001.4,0007.98,0004.50,0004.21
2023-02-23 15:32:00,,0821.6,5.00,0.00,22.3,20.4,00.0,31.2,23.8,04.8,0000.4,0008.05,0004.54,0004.23
2023-02-23 15:33:00,,0821.7,4.98,0.00,22.3,20.8,00.0,31.1,23.8,04.9,0000.0,0007.67,0004.51,0004.22
2023-02-23 15:34:00,,0821.6,5.00,0.00,22.4,22.3,00.0,31.1,24.1,04.9,0000.0,0007.48,0004.51,0004.22
2023-02-23 15:35:00,,0821.7,4.90,0.00,22.5,23.2,00.0,31.2,24.4,04.8,0000.0,0007.37,0004.53,0004.24
2023-02-23 15:36:00,,0821.7,5.01,0.00,22.6,22.6,00.0,31.2,24.2,04.8,0000.0,0007.33,0004.52,0004.24
2023-02-23 15:37:00,,0821.7,5.00,0.00,22.5,21.9,00.0,31.2,24.1,04.8,0000.0,0007.27,0004.51,0004.24
2023-02-23 15:38:00,,0821.7,5.01,0.00,22.5,21.4,00.0,31.2,24.0,04.8,0000.0,0007.20,0004.49,0004.23
2023-02-23 15:39:00,,0821.7,5.04,0.00,22.4,20.9,00.0,31.2,23.9,04.7,0000.0,0007.44,0004.53,0004.24
2023-02-23 15:40:00,,0821.8,4.98,0.00,22.4,20.6,00.0,31.2,23.8,04.7,0000.0,0007.49,0004.54,0004.25
2023-02-23 15:41:00,,0821.8,5.01,0.00,22.3,20.4,00.0,31.1,23.7,04.7,0000.0,0007.46,0004.54,0004.25
2023-02-23 15:42:00,,0821.9,4.98,0.00,22.3,21.6,00.0,31.1,24.0,04.8,0000.0,0007.37,0004.50,0004.23
2023-02-23 15:43:00,,0822.0,5.06,0.00,22.5,23.0,00.0,31.1,24.3,04.8,0000.0,0007.57,0004.47,0004.20
2023-02-23 15:44:00,,0822.0,4.97,0.00,22.6,23.0,00.0,31.2,24.4,04.8,0000.0,0007.92,0004.48,0004.20
2023-02-23 15:45:00,,0822.0,5.01,0.00,22.6,22.3,00.0,31.2,24.2,04.7,0000.0,0007.99,0004.51,0004.22
2023-02-23 15:46:00,,0822.4,4.99,0.00,22.5,21.7,00.0,31.2,24.1,04.7,0000.0,0008.04,0004.54,0004.26
2023-02-23 15:47:00,,0822.0,5.01,0.00,22.5,21.3,00.0,31.2,24.0,04.6,0000.0,0008.12,0004.60,0004.32
2023-02-23 15:48:00,,0822.0,5.00,0.00,22.4,20.9,00.0,31.2,24.0,04.5,0000.3,0008.18,0004.64,0004.36
2023-02-23 15:49:00,,0822.0,4.98,0.00,22.4,20.6,00.0,31.2,23.8,04.5,0000.0,0008.23,0004.68,0004.41
2023-02-23 15:50:00,,0822.1,5.01,0.00,22.3,20.8,00.0,31.2,23.8,04.4,0000.3,0008.25,0004.71,0004.45
2023-02-23 15:51:00,,0822.1,4.94,0.00,22.4,22.4,00.0,31.2,24.2,04.3,0001.8,0008.15,0004.71,0004.48
2023-02-23 15:52:00,,0822.1,5.00,0.00,22.6,23.6,00.0,31.2,24.5,04.2,0002.2,0008.34,0004.79,0004.52
2023-02-23 15:53:00,,0822.1,4.95,0.00,22.7,23.6,00.0,31.2,24.6,04.1,0003.2,0008.58,0004.88,0004.58
2023-02-23 15:54:00,,0822.0,5.03,0.00,22.7,22.8,00.0,31.3,24.4,04.0,0003.3,0008.53,0004.93,0004.64
2023-02-23 15:55:00,,0821.9,5.01,0.00,22.7,22.1,00.0,31.3,24.2,04.0,0003.6,0008.03,0004.95,0004.69
2023-02-23 15:56:00,,0821.9,5.00,0.00,22.6,21.6,00.0,31.3,24.1,03.9,0003.7,0008.12,0005.02,0004.73
2023-02-23 15:57:00,,0822.0,4.99,0.00,22.6,21.2,00.0,31.3,24.0,03.9,0003.7,0008.13,0005.04,0004.76
2023-02-23 15:58:00,,0822.0,5.00,0.00,22.5,20.9,00.0,31.3,24.0,03.8,0003.7,0008.07,0005.01,0004.74
2023-02-23 15:59:00,,0822.0,5.01,0.00,22.5,20.6,00.0,31.3,23.9,03.8,0002.9,0008.00,0004.98,0004.71
